Neely Henry Lake Weather Center

Moon Phase Calendar



Neely Henry Lake Water Level
Online Cameras

 


      

Current Conditions in Southside
4/21/2024 2:59:58 AM

53°F
Feels Like 53
Clouds
Humidity
96%
Pressure
30.03"
Wind
8 mph (NNW)
Dew Point
52°F
UV Index
0/10 (Low)
Visibility
6 mi

Hourly Forecast

Date & Time Sun, Apr 21
2:00 AM
Sun, Apr 21
3:00 AM
Sun, Apr 21
4:00 AM
Sun, Apr 21
5:00 AM
Sun, Apr 21
6:00 AM
Sun, Apr 21
7:00 AM
Sun, Apr 21
8:00 AM
Sun, Apr 21
9:00 AM
Sun, Apr 21
10:00 AM
Sun, Apr 21
11:00 AM
Sun, Apr 21
12:00 PM
Sun, Apr 21
1:00 PM
Sun, Apr 21
2:00 PM
Sun, Apr 21
3:00 PM
Sun, Apr 21
4:00 PM
Sun, Apr 21
5:00 PM
Sun, Apr 21
6:00 PM
Sun, Apr 21
7:00 PM
Sun, Apr 21
8:00 PM
Sun, Apr 21
9:00 PM
Sun, Apr 21
10:00 PM
Sun, Apr 21
11:00 PM
Mon, Apr 22
12:00 AM
Mon, Apr 22
1:00 AM
Mon, Apr 22
2:00 AM
Mon, Apr 22
3:00 AM
Mon, Apr 22
4:00 AM
Mon, Apr 22
5:00 AM
Mon, Apr 22
6:00 AM
Mon, Apr 22
7:00 AM
Mon, Apr 22
8:00 AM
Mon, Apr 22
9:00 AM
Mon, Apr 22
10:00 AM
Mon, Apr 22
11:00 AM
Mon, Apr 22
12:00 PM
Mon, Apr 22
1:00 PM
Mon, Apr 22
2:00 PM
Mon, Apr 22
3:00 PM
Mon, Apr 22
4:00 PM
Mon, Apr 22
5:00 PM
Mon, Apr 22
6:00 PM
Mon, Apr 22
7:00 PM
Mon, Apr 22
8:00 PM
Mon, Apr 22
9:00 PM
Mon, Apr 22
10:00 PM
Mon, Apr 22
11:00 PM
Tue, Apr 23
12:00 AM
Tue, Apr 23
1:00 AM
Condition
Rain

Clouds

Clouds

Clouds

Rain

Rain

Rain

Clouds

Clouds

Clouds

Clouds

Clouds

Clouds

Clouds

Clouds

Clouds

Clouds

Clouds

Clouds

Clear

Clouds

Clouds

Clouds

Clouds

Clear

Clear

Clear

Clear

Clear

Clear

Clear

Clear

Clear

Clear

Clear

Clear

Clear

Clear

Clear

Clear

Clear

Clear

Clear

Clear

Clear

Clear

Clear

Clear
Temperature 53°F53°F53°F52°F51°F48°F47°F47°F46°F47°F48°F58°F60°F60°F61°F60°F58°F54°F51°F49°F49°F47°F45°F44°F43°F42°F42°F41°F40°F42°F47°F51°F55°F58°F60°F63°F64°F65°F65°F64°F62°F55°F51°F49°F48°F46°F45°F45°F
Feels Like 53°F53°F52°F51°F50°F45°F43°F41°F42°F44°F44°F56°F58°F58°F58°F58°F56°F51°F49°F45°F45°F43°F41°F40°F38°F38°F37°F37°F36°F38°F43°F48°F52°F55°F58°F60°F62°F63°F63°F62°F60°F53°F49°F49°F48°F46°F45°F45°F
Cloudiness 100%100%100%100%100%100%100%100%100%100%100%100%48%40%29%24%21%18%14%9%35%27%23%19%0%0%0%0%0%0%0%0%0%0%0%0%0%0%0%0%0%0%0%0%1%1%1%0%
Visibility 6 mi6 mi6 mi6 mi6 mi6 mi6 mi6 mi6 mi6 mi6 mi6 mi6 mi6 mi6 mi6 mi6 mi6 mi6 mi6 mi6 mi6 mi6 mi6 mi6 mi6 mi6 mi6 mi6 mi6 mi6 mi6 mi6 mi6 mi6 mi6 mi6 mi6 mi6 mi6 mi6 mi6 mi6 mi6 mi6 mi6 mi6 mi6 mi
Precipitation 86%57%35%21%95%100%80%80%78%71%66%56%0%0%0%0%0%0%0%0%0%0%0%0%0%0%0%0%0%0%0%0%0%0%0%0%0%0%0%0%0%0%0%0%0%0%0%0%
Humidity 96%96%95%92%90%91%86%83%83%80%76%49%46%44%43%48%55%59%62%65%64%66%68%71%72%71%71%73%74%72%61%54%47%41%37%34%33%34%35%39%51%63%61%62%66%70%73%75%
Dew Point 52°F52°F51°F50°F48°F46°F43°F41°F41°F41°F41°F38°F39°F38°F38°F40°F41°F40°F38°F38°F37°F36°F35°F35°F34°F33°F33°F33°F33°F33°F34°F35°F34°F34°F34°F34°F35°F35°F37°F38°F43°F42°F38°F37°F37°F37°F37°F37°F
Pressure 30.03"30.03"30.03"30.03"30.06"30.09"30.09"30.09"30.12"30.12"30.09"30.09"30.09"30.06"30.03"30.03"30.06"30.09"30.12"30.15"30.15"30.15"30.15"30.15"30.15"30.15"30.18"30.18"30.18"30.21"30.21"30.24"30.24"30.21"30.21"30.18"30.18"30.15"30.15"30.15"30.15"30.18"30.18"30.18"30.21"30.21"30.21"30.21"
Wind Speed 6.5 mph6.9 mph7.3 mph6.2 mph6.8 mph7.8 mph8.4 mph11.5 mph8.9 mph7.2 mph9 mph9.9 mph11 mph11.2 mph10.4 mph11.3 mph10.3 mph10 mph8.6 mph8.7 mph9.9 mph9.6 mph8.5 mph7.2 mph7.5 mph7.5 mph7.3 mph6.6 mph6.6 mph6.6 mph8.7 mph9.6 mph9.2 mph8 mph6.9 mph6.1 mph6.2 mph6.2 mph6.3 mph6.2 mph5.1 mph3.1 mph1.9 mph0.9 mph2 mph2.4 mph2.4 mph0.8 mph
Wind
Direction
355°
N
15°
NNE

N

N
337°
NNW
346°
NNW
352°
N
347°
NNW
352°
N
349°
N
14°
NNE
357°
N
341°
NNW
337°
NNW
334°
NNW
334°
NNW
336°
NNW
343°
NNW
348°
NNW
346°
NNW
349°
N
348°
NNW
347°
NNW
344°
NNW
344°
NNW
350°
N
352°
N
349°
N
351°
N
356°
N
12°
NNE
24°
NNE
26°
NNE
28°
NNE
30°
NNE
23°
NNE
16°
NNE
11°
N

N
358°
N
344°
NNW
339°
NNW
347°
NNW
10°
N
25°
NNE
10°
N
351°
N
12°
NNE

Daily Forecast

Date High Low Precip. Humidity
Today
Apr 21

Rain
61 °F
46 °F
100%
76%
Monday
Apr 22

Clear
65 °F
40 °F
0%
37%
Tuesday
Apr 23

Clear
72 °F
42 °F
0%
43%
Wednesday
Apr 24

Clouds
75 °F
48 °F
0%
47%
Thursday
Apr 25

Rain
79 °F
58 °F
100%
54%
Friday
Apr 26

Rain
80 °F
59 °F
100%
53%
Saturday
Apr 27

Rain
80 °F
62 °F
100%
52%
Sunday
Apr 28

Clouds
86 °F
63 °F
10%
47%
Monday
Apr 29

Rain
87 °F
63 °F
99%
45%
Tuesday
Apr 30

Clouds
87 °F
66 °F
0%
46%
Wednesday
May 1

Rain
82 °F
66 °F
100%
71%
Thursday
May 2

Rain
76 °F
59 °F
100%
34%
Friday
May 3

Clear
79 °F
52 °F
0%
39%
Saturday
May 4

Clouds
82 °F
56 °F
0%
36%
Sunday
May 5

Clouds
79 °F
53 °F
0%
37%
Monday
May 6

Clouds
82 °F
55 °F
5%
51%

Temperature 8-14 Day Outlook



Precipitation 8-14 Day Outlook




Quick Links
Neely Henry Lake News
Neely Henry Lake Photos
Neely Henry Lake Videos




About Us
Contact Us
Site Map
Search Site
Advertise With Us
   
NeelyHenry.USLakes.info
THE NEELY HENRY LAKE WEBSITE

Copyright 2024, Lakes Online
Privacy    |    Legal